| time (UTC) | temp C | wind direction | speed KPH | gust KPH | rain 1hr cm | rain 24hr cm | rain mn cm | humidity % | barometer mb |
| 20260505125037 | 27 | 151 | 1.6 | 6.4 | 0.00 | 0.00 | 0.00 | 32 | 1004.9 |
| 20260505124557 | 27 | 313 | 1.6 | 6.4 | 0.00 | 0.00 | 0.00 | 34 | 1004.9 |
| 20260505124038 | 26 | 0 | 0.0 | 4.8 | 0.00 | 0.00 | 0.00 | 34 | 1005.1 |
| 20260505123538 | 26 | 0 | 1.6 | 8.0 | 0.00 | 0.00 | 0.00 | 32 | 1005.1 |
| 20260505123057 | 26 | 0 | 1.6 | 8.0 | 0.00 | 0.00 | 0.00 | 31 | 1005.2 |
| 20260505122544 | 26 | 227 | 4.8 | 8.0 | 0.00 | 0.00 | 0.00 | 30 | 1005.2 |
| 20260505122040 | 26 | 225 | 1.6 | 9.7 | 0.00 | 0.00 | 0.00 | 32 | 1005.4 |
| 20260505121612 | 26 | 229 | 1.6 | 9.7 | 0.00 | 0.00 | 0.00 | 32 | 1005.4 |
| 20260505121037 | 26 | 267 | 3.2 | 9.7 | 0.00 | 0.00 | 0.00 | 32 | 1005.4 |
| 20260505120537 | 26 | 185 | 1.6 | 9.7 | 0.00 | 0.00 | 0.00 | 32 | 1005.6 |
| 20260505120056 | 26 | 309 | 0.0 | 11.3 | 0.00 | 0.00 | 0.00 | 34 | 1005.5 |
| 20260505115546 | 26 | 265 | 1.6 | 11.3 | 0.00 | 0.00 | 0.00 | 33 | 1005.6 |
| 20260505115040 | 26 | 211 | 3.2 | 9.7 | 0.00 | 0.00 | 0.00 | 29 | 1005.6 |
| 20260505114555 | 26 | 228 | 1.6 | 6.4 | 0.00 | 0.00 | 0.00 | 33 | 1005.7 |
| 20260505114041 | 25 | 310 | 1.6 | 12.9 | 0.00 | 0.00 | 0.00 | 33 | 1005.7 |
| 20260505113537 | 26 | 0 | 1.6 | 12.9 | 0.00 | 0.00 | 0.00 | 32 | 1005.8 |
| 20260505113049 | 26 | 338 | 1.6 | 12.9 | 0.00 | 0.00 | 0.00 | 38 | 1005.9 |
| 20260505112540 | 25 | 298 | 3.2 | 12.9 | 0.00 | 0.00 | 0.00 | 35 | 1006.0 |
| 20260505112041 | 25 | 292 | 3.2 | 12.9 | 0.00 | 0.00 | 0.00 | 35 | 1006.0 |
| 20260505111550 | 25 | 229 | 3.2 | 14.5 | 0.00 | 0.00 | 0.00 | 38 | 1006.2 |
| 20260505111040 | 25 | 327 | 3.2 | 14.5 | 0.00 | 0.00 | 0.00 | 41 | 1006.2 |
| 20260505110541 | 25 | 319 | 3.2 | 12.9 | 0.00 | 0.00 | 0.00 | 40 | 1006.4 |
| 20260505102040 | 24 | 325 | 1.6 | 9.7 | 0.00 | 0.00 | 0.00 | 45 | 1006.9 |
| 20260505101556 | 24 | 289 | 3.2 | 8.0 | 0.00 | 0.00 | 0.00 | 44 | 1006.9 |
| 20260505101040 | 23 | 0 | 0.0 | 11.3 | 0.00 | 0.00 | 0.00 | 47 | 1006.9 |
| 20260505100540 | 23 | 0 | 3.2 | 11.3 | 0.00 | 0.00 | 0.00 | 44 | 1006.9 |
| 20260505100058 | 23 | 232 | 1.6 | 8.0 | 0.00 | 0.00 | 0.00 | 44 | 1007.0 |
| 20260505095539 | 23 | 325 | 3.2 | 6.4 | 0.00 | 0.00 | 0.00 | 47 | 1007.0 |
| 20260505095039 | 23 | 195 | 1.6 | 6.4 | 0.00 | 0.00 | 0.00 | 46 | 1007.2 |
| 20260505094549 | 23 | 209 | 1.6 | 6.4 | 0.00 | 0.00 | 0.00 | 45 | 1007.2 |
| 20260505094039 | 23 | 168 | 1.6 | 8.0 | 0.00 | 0.00 | 0.00 | 46 | 1007.3 |
| 20260505093542 | 23 | 171 | 1.6 | 8.0 | 0.00 | 0.00 | 0.00 | 50 | 1007.4 |
| 20260505093048 | 23 | 182 | 1.6 | 6.4 | 0.00 | 0.00 | 0.00 | 50 | 1007.4 |
| 20260505092540 | 22 | 0 | 1.6 | 6.4 | 0.00 | 0.00 | 0.00 | 47 | 1007.5 |
| 20260505092040 | 22 | 311 | 1.6 | 6.4 | 0.00 | 0.00 | 0.00 | 47 | 1007.6 |
| 20260505091548 | 22 | 0 | 0.0 | 6.4 | 0.00 | 0.00 | 0.00 | 51 | 1007.6 |
| 20260505091039 | 22 | 164 | 1.6 | 6.4 | 0.00 | 0.00 | 0.00 | 50 | 1007.6 |
| 20260505090539 | 22 | 205 | 3.2 | 6.4 | 0.00 | 0.00 | 0.00 | 50 | 1007.8 |
| 20260505085538 | 21 | 0 | 3.2 | 8.0 | 0.00 | 0.00 | 0.00 | 53 | 1007.8 |
| 20260505085040 | 22 | 0 | 1.6 | 9.7 | 0.00 | 0.00 | 0.00 | 51 | 1007.9 |
| 20260505084611 | 22 | 245 | 3.2 | 11.3 | 0.00 | 0.00 | 0.00 | 51 | 1007.9 |
| 20260505084038 | 21 | 0 | 1.6 | 11.3 | 0.00 | 0.00 | 0.00 | 53 | 1007.9 |
| 20260505083537 | 21 | 200 | 3.2 | 11.3 | 0.00 | 0.00 | 0.00 | 52 | 1007.9 |
| 20260505083058 | 21 | 0 | 1.6 | 8.0 | 0.00 | 0.00 | 0.00 | 54 | 1007.9 |
| 20260505082537 | 21 | 162 | 0.0 | 8.0 | 0.00 | 0.00 | 0.00 | 52 | 1007.9 |
| 20260505082037 | 21 | 155 | 1.6 | 8.0 | 0.00 | 0.00 | 0.00 | 55 | 1008.0 |
| 20260505081549 | 21 | 187 | 1.6 | 6.4 | 0.00 | 0.00 | 0.00 | 55 | 1008.0 |
| 20260505081037 | 21 | 292 | 0.0 | 8.0 | 0.00 | 0.00 | 0.00 | 57 | 1008.0 |
| 20260505080536 | 21 | 0 | 0.0 | 8.0 | 0.00 | 0.00 | 0.00 | 56 | 1008.1 |
| 20260505080056 | 21 | 198 | 1.6 | 8.0 | 0.00 | 0.00 | 0.00 | 54 | 1008.1 |
| 20260505075539 | 21 | 281 | 0.0 | 4.8 | 0.00 | 0.00 | 0.00 | 55 | 1008.1 |
| 20260505075040 | 21 | 90 | 1.6 | 4.8 | 0.00 | 0.00 | 0.00 | 58 | 1008.1 |
| 20260505074549 | 20 | 0 | 1.6 | 4.8 | 0.00 | 0.00 | 0.00 | 59 | 1008.2 |
| 20260505074039 | 20 | 324 | 0.0 | 4.8 | 0.00 | 0.00 | 0.00 | 60 | 1008.2 |
| 20260505073540 | 20 | 213 | 0.0 | 4.8 | 0.00 | 0.00 | 0.00 | 60 | 1008.2 |
| 20260505073048 | 20 | 5 | 0.0 | 4.8 | 0.00 | 0.00 | 0.00 | 60 | 1008.1 |
| 20260505072542 | 19 | 0 | 1.6 | 4.8 | 0.00 | 0.00 | 0.00 | 61 | 1008.2 |
| 20260505072039 | 19 | 352 | 1.6 | 3.2 | 0.00 | 0.00 | 0.00 | 60 | 1008.3 |
| 20260505071547 | 19 | 29 | 0.0 | 3.2 | 0.00 | 0.00 | 0.00 | 62 | 1008.3 |
| 20260505071039 | 18 | 138 | 1.6 | 6.4 | 0.00 | 0.00 | 0.00 | 61 | 1008.3 |
| 20260505070538 | 18 | 0 | 0.0 | 6.4 | 0.00 | 0.00 | 0.00 | 62 | 1008.3 |
| 20260505070052 | 18 | 63 | 1.6 | 6.4 | 0.00 | 0.00 | 0.00 | 61 | 1008.4 |
| 20260505065536 | 18 | 90 | 0.0 | 4.8 | 0.00 | 0.00 | 0.00 | 61 | 1008.5 |
| 20260505065039 | 18 | 0 | 0.0 | 3.2 | 0.00 | 0.00 | 0.00 | 63 | 1008.5 |
| 20260505064551 | 18 | 88 | 0.0 | 4.8 | 0.00 | 0.00 | 0.00 | 63 | 1008.6 |
| 20260505064039 | 18 | 178 | 0.0 | 6.4 | 0.00 | 0.00 | 0.00 | 63 | 1008.6 |
| 20260505063539 | 18 | 0 | 0.0 | 6.4 | 0.00 | 0.00 | 0.00 | 65 | 1008.6 |
| 20260505063049 | 18 | 68 | 1.6 | 4.8 | 0.00 | 0.00 | 0.00 | 65 | 1008.6 |
| 20260505062540 | 17 | 0 | 0.0 | 4.8 | 0.00 | 0.00 | 0.00 | 66 | 1008.6 |
| 20260505062037 | 17 | 0 | 0.0 | 4.8 | 0.00 | 0.00 | 0.00 | 67 | 1008.7 |
| 20260505061557 | 17 | 157 | 0.0 | 3.2 | 0.00 | 0.00 | 0.00 | 67 | 1008.7 |
| 20260505061037 | 16 | 0 | 0.0 | 3.2 | 0.00 | 0.00 | 0.00 | 68 | 1008.8 |
| 20260505060537 | 16 | 0 | 0.0 | 3.2 | 0.00 | 0.00 | 0.00 | 70 | 1008.8 |
| 20260505060050 | 16 | 0 | 0.0 | 3.2 | 0.00 | 0.00 | 0.00 | 70 | 1008.8 |
| 20260505055537 | 16 | 251 | 0.0 | 1.6 | 0.00 | 0.00 | 0.00 | 70 | 1008.8 |
| 20260505055040 | 16 | 0 | 0.0 | 1.6 | 0.00 | 0.00 | 0.00 | 70 | 1008.9 |
| 20260505054548 | 16 | 0 | 0.0 | 1.6 | 0.00 | 0.00 | 0.00 | 70 | 1008.8 |
| 20260505054039 | 16 | 0 | 0.0 | 1.6 | 0.00 | 0.00 | 0.00 | 72 | 1008.8 |
| 20260505053539 | 15 | 0 | 0.0 | 1.6 | 0.00 | 0.00 | 0.00 | 72 | 1008.9 |
| 20260505053106 | 15 | 251 | 0.0 | 1.6 | 0.00 | 0.00 | 0.00 | 72 | 1008.8 |
| 20260505052539 | 15 | 0 | 0.0 | 1.6 | 0.00 | 0.00 | 0.00 | 73 | 1008.9 |
| 20260505052037 | 15 | 0 | 0.0 | 3.2 | 0.00 | 0.00 | 0.00 | 73 | 1008.8 |
| 20260505051550 | 15 | 0 | 0.0 | 3.2 | 0.00 | 0.00 | 0.00 | 75 | 1008.8 |
| 20260505051037 | 14 | 251 | 0.0 | 1.6 | 0.00 | 0.00 | 0.00 | 76 | 1008.9 |
| 20260505050537 | 14 | 0 | 0.0 | 0.0 | 0.00 | 0.00 | 0.00 | 77 | 1008.9 |
| 20260505041548 | 13 | 0 | 0.0 | 0.0 | 0.00 | 0.00 | 0.00 | 78 | 1009.0 |
| 20260505041039 | 13 | 0 | 0.0 | 0.0 | 0.00 | 0.00 | 0.00 | 78 | 1009.1 |
| 20260505040539 | 13 | 0 | 0.0 | 0.0 | 0.00 | 0.00 | 0.00 | 77 | 1009.0 |
| 20260505040053 | 13 | 0 | 0.0 | 0.0 | 0.00 | 0.00 | 0.00 | 77 | 1009.0 |
| 20260505035539 | 13 | 0 | 0.0 | 0.0 | 0.00 | 0.00 | 0.00 | 77 | 1009.0 |
| 20260505035038 | 13 | 0 | 0.0 | 0.0 | 0.00 | 0.00 | 0.00 | 76 | 1009.0 |
| 20260505034550 | 13 | 0 | 0.0 | 0.0 | 0.00 | 0.00 | 0.00 | 76 | 1009.0 |
| 20260505034039 | 13 | 0 | 0.0 | 0.0 | 0.00 | 0.00 | 0.00 | 75 | 1008.9 |
| 20260505033542 | 13 | 0 | 0.0 | 0.0 | 0.00 | 0.00 | 0.00 | 75 | 1008.7 |
| 20260505033109 | 13 | 0 | 0.0 | 0.0 | 0.00 | 0.00 | 0.00 | 74 | 1008.8 |
| 20260505032537 | 13 | 0 | 0.0 | 0.0 | 0.00 | 0.00 | 0.00 | 74 | 1008.9 |
| 20260505032039 | 13 | 0 | 0.0 | 0.0 | 0.00 | 0.00 | 0.00 | 74 | 1008.9 |
| 20260505031549 | 13 | 0 | 0.0 | 0.0 | 0.00 | 0.00 | 0.00 | 73 | 1008.9 |
| 20260505031042 | 13 | 0 | 0.0 | 0.0 | 0.00 | 0.00 | 0.00 | 73 | 1008.9 |
| 20260505030539 | 14 | 0 | 0.0 | 0.0 | 0.00 | 0.00 | 0.00 | 73 | 1008.9 |
| 20260505030053 | 14 | 0 | 0.0 | 0.0 | 0.00 | 0.00 | 0.00 | 72 | 1008.9 |
| 20260505025538 | 14 | 0 | 0.0 | 0.0 | 0.00 | 0.00 | 0.00 | 72 | 1009.0 |
| 20260505025040 | 14 | 0 | 0.0 | 0.0 | 0.00 | 0.00 | 0.00 | 72 | 1009.0 |
| 20260505024547 | 14 | 0 | 0.0 | 0.0 | 0.00 | 0.00 | 0.00 | 71 | 1009.1 |
| 20260505024039 | 14 | 0 | 0.0 | 0.0 | 0.00 | 0.00 | 0.00 | 71 | 1009.0 |
| 20260505023537 | 14 | 0 | 0.0 | 0.0 | 0.00 | 0.00 | 0.00 | 70 | 1009.0 |
| 20260505023100 | 15 | 0 | 0.0 | 0.0 | 0.00 | 0.00 | 0.00 | 70 | 1009.0 |
| 20260505022539 | 15 | 0 | 0.0 | 0.0 | 0.00 | 0.00 | 0.00 | 69 | 1008.9 |
| 20260505022042 | 15 | 0 | 0.0 | 0.0 | 0.00 | 0.00 | 0.00 | 69 | 1009.0 |
| 20260505021555 | 15 | 0 | 0.0 | 0.0 | 0.00 | 0.00 | 0.00 | 69 | 1009.0 |
| 20260505021038 | 15 | 0 | 0.0 | 0.0 | 0.00 | 0.00 | 0.00 | 68 | 1009.0 |
| 20260505020539 | 15 | 0 | 0.0 | 0.0 | 0.00 | 0.00 | 0.00 | 69 | 1009.1 |
| 20260505020051 | 15 | 0 | 0.0 | 0.0 | 0.00 | 0.00 | 0.00 | 68 | 1009.1 |
| 20260505015540 | 15 | 0 | 0.0 | 0.0 | 0.00 | 0.00 | 0.00 | 68 | 1009.1 |
| 20260505015042 | 15 | 0 | 0.0 | 0.0 | 0.00 | 0.00 | 0.00 | 67 | 1009.2 |
| 20260505014551 | 15 | 0 | 0.0 | 0.0 | 0.00 | 0.00 | 0.00 | 67 | 1009.2 |
| 20260505014042 | 15 | 0 | 0.0 | 0.0 | 0.00 | 0.00 | 0.00 | 67 | 1009.2 |
| 20260505013539 | 15 | 0 | 0.0 | 0.0 | 0.00 | 0.00 | 0.00 | 67 | 1009.1 |
| 20260505013049 | 15 | 0 | 0.0 | 0.0 | 0.00 | 0.00 | 0.00 | 67 | 1009.1 |
| 20260505012539 | 16 | 0 | 0.0 | 0.0 | 0.00 | 0.00 | 0.00 | 67 | 1009.2 |
| 20260505012039 | 16 | 0 | 0.0 | 0.0 | 0.00 | 0.00 | 0.00 | 67 | 1009.3 |
| 20260505011551 | 16 | 0 | 0.0 | 0.0 | 0.00 | 0.00 | 0.00 | 66 | 1009.2 |
| 20260505011038 | 16 | 0 | 0.0 | 0.0 | 0.00 | 0.00 | 0.00 | 65 | 1009.1 |
| 20260505010539 | 16 | 0 | 0.0 | 0.0 | 0.00 | 0.00 | 0.00 | 65 | 1009.2 |
| 20260505010052 | 16 | 0 | 0.0 | 0.0 | 0.00 | 0.00 | 0.00 | 64 | 1009.3 |
| 20260505005539 | 16 | 0 | 0.0 | 0.0 | 0.00 | 0.00 | 0.00 | 64 | 1009.2 |
| 20260505005038 | 16 | 0 | 0.0 | 0.0 | 0.00 | 0.00 | 0.00 | 64 | 1009.2 |
| 20260505004555 | 16 | 0 | 0.0 | 0.0 | 0.00 | 0.00 | 0.00 | 64 | 1009.3 |
| 20260505004037 | 16 | 0 | 0.0 | 0.0 | 0.00 | 0.00 | 0.00 | 62 | 1009.4 |
| 20260505003538 | 17 | 0 | 0.0 | 0.0 | 0.00 | 0.00 | 0.00 | 62 | 1009.5 |
| 20260505003047 | 17 | 0 | 0.0 | 0.0 | 0.00 | 0.00 | 0.00 | 61 | 1009.5 |
| 20260505002537 | 17 | 0 | 0.0 | 0.0 | 0.00 | 0.00 | 0.00 | 61 | 1009.5 |
| 20260505002038 | 17 | 0 | 0.0 | 0.0 | 0.00 | 0.00 | 0.00 | 60 | 1009.5 |
| 20260505001550 | 17 | 0 | 0.0 | 0.0 | 0.00 | 0.00 | 0.00 | 59 | 1009.6 |
| 20260505001038 | 17 | 0 | 0.0 | 0.0 | 0.00 | 0.00 | 0.00 | 59 | 1009.6 |
| 20260505000542 | 18 | 0 | 0.0 | 0.0 | 0.00 | 0.00 | 0.00 | 58 | 1009.6 |
| 20260505000051 | 18 | 0 | 0.0 | 1.6 | 0.00 | 0.00 | 0.00 | 58 | 1009.7 |
| 20260504235538 | 18 | 0 | 0.0 | 1.6 | 0.00 | 0.00 | 0.00 | 58 | 1009.7 |
| 20260504235039 | 18 | 0 | 0.0 | 4.8 | 0.00 | 0.00 | 0.00 | 57 | 1009.7 |
| 20260504234612 | 18 | 0 | 0.0 | 4.8 | 0.00 | 0.00 | 0.00 | 57 | 1009.7 |
| 20260504234037 | 18 | 0 | 0.0 | 6.4 | 0.00 | 0.00 | 0.00 | 56 | 1009.8 |
| 20260504233537 | 18 | 0 | 0.0 | 6.4 | 0.00 | 0.00 | 0.00 | 56 | 1009.8 |
| 20260504233048 | 18 | 0 | 1.6 | 6.4 | 0.00 | 0.00 | 0.00 | 55 | 1009.7 |
| 20260504232539 | 19 | 0 | 0.0 | 4.8 | 0.00 | 0.00 | 0.00 | 55 | 1009.7 |
| 20260504232039 | 19 | 0 | 1.6 | 8.0 | 0.00 | 0.00 | 0.00 | 54 | 1009.7 |
| 20260504231555 | 19 | 0 | 0.0 | 9.7 | 0.00 | 0.00 | 0.00 | 54 | 1009.7 |
| 20260504231038 | 19 | 155 | 1.6 | 9.7 | 0.00 | 0.00 | 0.00 | 53 | 1009.6 |
| 20260504230538 | 19 | 129 | 1.6 | 6.4 | 0.00 | 0.00 | 0.00 | 53 | 1009.6 |
| 20260504230050 | 19 | 188 | 0.0 | 4.8 | 0.00 | 0.00 | 0.00 | 53 | 1009.5 |
| 20260504225538 | 19 | 225 | 1.6 | 4.8 | 0.00 | 0.00 | 0.00 | 53 | 1009.3 |
| 20260504225037 | 19 | 0 | 0.0 | 3.2 | 0.00 | 0.00 | 0.00 | 53 | 1009.4 |
| 20260504224557 | 20 | 298 | 0.0 | 3.2 | 0.00 | 0.00 | 0.00 | 52 | 1009.3 |
| 20260504224038 | 20 | 0 | 0.0 | 1.6 | 0.00 | 0.00 | 0.00 | 52 | 1009.3 |
| 20260504223538 | 20 | 0 | 0.0 | 11.3 | 0.00 | 0.00 | 0.00 | 52 | 1009.4 |
| 20260504223046 | 20 | 0 | 0.0 | 12.9 | 0.00 | 0.00 | 0.00 | 51 | 1009.4 |
| 20260504222540 | 20 | 89 | 3.2 | 16.1 | 0.00 | 0.00 | 0.00 | 52 | 1009.4 |
| 20260504222037 | 19 | 293 | 1.6 | 16.1 | 0.00 | 0.00 | 0.00 | 52 | 1009.5 |
| 20260504221600 | 19 | 319 | 0.0 | 6.4 | 0.00 | 0.00 | 0.00 | 54 | 1009.5 |
| 20260504221040 | 19 | 0 | 0.0 | 6.4 | 0.00 | 0.00 | 0.00 | 53 | 1009.6 |
| 20260504220537 | 19 | 343 | 1.6 | 6.4 | 0.00 | 0.00 | 0.00 | 53 | 1009.7 |
| 20260504220054 | 19 | 321 | 1.6 | 11.3 | 0.00 | 0.00 | 0.00 | 54 | 1009.8 |
| 20260504215540 | 19 | 352 | 0.0 | 11.3 | 0.00 | 0.00 | 0.00 | 54 | 1009.8 |
| 20260504215039 | 19 | 281 | 1.6 | 6.4 | 0.00 | 0.00 | 0.00 | 55 | 1009.9 |
| 20260504214552 | 19 | 329 | 0.0 | 4.8 | 0.00 | 0.00 | 0.00 | 55 | 1010.0 |
| 20260504214039 | 19 | 0 | 0.0 | 4.8 | 0.00 | 0.00 | 0.00 | 55 | 1010.1 |
| 20260504213539 | 20 | 342 | 0.0 | 16.1 | 0.00 | 0.00 | 0.00 | 55 | 1010.2 |
| 20260504213101 | 20 | 0 | 0.0 | 16.1 | 0.00 | 0.00 | 0.00 | 55 | 1010.3 |
| 20260504212539 | 20 | 326 | 1.6 | 9.7 | 0.00 | 0.00 | 0.00 | 54 | 1010.4 |
| 20260504212041 | 20 | 319 | 1.6 | 11.3 | 0.00 | 0.00 | 0.00 | 54 | 1010.5 |
| 20260504211549 | 20 | 360 | 3.2 | 12.9 | 0.00 | 0.00 | 0.00 | 54 | 1010.6 |
| 20260504211039 | 20 | 311 | 3.2 | 17.7 | 0.00 | 0.00 | 0.00 | 53 | 1010.7 |
| 20260504210536 | 20 | 296 | 1.6 | 17.7 | 0.00 | 0.00 | 0.00 | 53 | 1010.7 |
| 20260504210057 | 20 | 277 | 3.2 | 17.7 | 0.00 | 0.00 | 0.00 | 52 | 1010.6 |
| 20260504205542 | 20 | 267 | 1.6 | 9.7 | 0.00 | 0.00 | 0.00 | 52 | 1010.5 |
| 20260504205043 | 20 | 304 | 1.6 | 11.3 | 0.00 | 0.00 | 0.00 | 52 | 1010.4 |
| 20260504204624 | 19 | 288 | 1.6 | 11.3 | 0.00 | 0.00 | 0.00 | 53 | 1010.4 |
| 20260504204039 | 19 | 229 | 0.0 | 1.6 | 0.00 | 0.00 | 0.00 | 54 | 1010.5 |
| 20260504203542 | 19 | 0 | 0.0 | 1.6 | 0.00 | 0.00 | 0.00 | 53 | 1010.2 |
| 20260504203051 | 19 | 0 | 0.0 | 3.2 | 0.00 | 0.00 | 0.00 | 52 | 1010.0 |
| 20260504202539 | 20 | 0 | 0.0 | 3.2 | 0.00 | 0.00 | 0.00 | 52 | 1009.9 |
| 20260504202042 | 20 | 0 | 0.0 | 9.7 | 0.00 | 0.00 | 0.00 | 51 | 1009.8 |
| 20260504201546 | 20 | 316 | 0.0 | 9.7 | 0.00 | 0.00 | 0.00 | 51 | 1009.9 |
| 20260504201039 | 20 | 278 | 0.0 | 6.4 | 0.00 | 0.00 | 0.00 | 51 | 1009.8 |
| 20260504200539 | 20 | 245 | 0.0 | 4.8 | 0.00 | 0.00 | 0.00 | 52 | 1009.7 |
| 20260504200056 | 20 | 278 | 0.0 | 4.8 | 0.00 | 0.00 | 0.00 | 51 | 1009.6 |
| 20260504195540 | 20 | 0 | 0.0 | 6.4 | 0.00 | 0.00 | 0.00 | 51 | 1009.6 |
| 20260504195044 | 20 | 0 | 0.0 | 6.4 | 0.00 | 0.00 | 0.00 | 51 | 1009.6 |
| 20260504194556 | 21 | 340 | 0.0 | 6.4 | 0.00 | 0.00 | 0.00 | 50 | 1009.6 |
| 20260504194039 | 21 | 323 | 0.0 | 6.4 | 0.00 | 0.00 | 0.00 | 50 | 1009.5 |
| 20260504193540 | 21 | 321 | 0.0 | 6.4 | 0.00 | 0.00 | 0.00 | 50 | 1009.5 |
| 20260504193054 | 21 | 319 | 0.0 | 6.4 | 0.00 | 0.00 | 0.00 | 49 | 1009.5 |
| 20260504192540 | 21 | 0 | 0.0 | 3.2 | 0.00 | 0.00 | 0.00 | 49 | 1009.5 |
| 20260504192039 | 21 | 315 | 1.6 | 3.2 | 0.00 | 0.00 | 0.00 | 49 | 1009.4 |
| 20260504191552 | 21 | 0 | 0.0 | 3.2 | 0.00 | 0.00 | 0.00 | 48 | 1009.4 |
| 20260504191039 | 21 | 309 | 0.0 | 3.2 | 0.00 | 0.00 | 0.00 | 48 | 1009.4 |
| 20260504190539 | 22 | 0 | 0.0 | 4.8 | 0.00 | 0.00 | 0.00 | 47 | 1009.3 |
| 20260504190057 | 22 | 0 | 0.0 | 4.8 | 0.00 | 0.00 | 0.00 | 47 | 1009.3 |
| 20260504185539 | 22 | 0 | 0.0 | 3.2 | 0.00 | 0.00 | 0.00 | 45 | 1009.2 |
| 20260504185039 | 22 | 331 | 0.0 | 3.2 | 0.00 | 0.00 | 0.00 | 43 | 1009.1 |
| 20260504184604 | 23 | 331 | 0.0 | 4.8 | 0.00 | 0.00 | 0.00 | 42 | 1009.1 |
| 20260504184039 | 23 | 55 | 0.0 | 4.8 | 0.00 | 0.00 | 0.00 | 41 | 1009.1 |
| 20260504183539 | 23 | 0 | 0.0 | 4.8 | 0.00 | 0.00 | 0.00 | 41 | 1009.0 |
| 20260504183058 | 23 | 0 | 1.6 | 9.7 | 0.00 | 0.00 | 0.00 | 40 | 1009.0 |
| 20260504182543 | 23 | 66 | 1.6 | 9.7 | 0.00 | 0.00 | 0.00 | 41 | 1009.0 |
| 20260504182038 | 23 | 0 | 1.6 | 4.8 | 0.00 | 0.00 | 0.00 | 41 | 1009.1 |
| 20260504181555 | 23 | 49 | 1.6 | 4.8 | 0.00 | 0.00 | 0.00 | 40 | 1009.0 |
| 20260504181040 | 24 | 74 | 0.0 | 6.4 | 0.00 | 0.00 | 0.00 | 40 | 1009.0 |
| 20260504180537 | 24 | 0 | 1.6 | 6.4 | 0.00 | 0.00 | 0.00 | 40 | 1009.1 |
| 20260504180054 | 24 | 60 | 1.6 | 4.8 | 0.00 | 0.00 | 0.00 | 40 | 1009.0 |
| 20260504175538 | 24 | 0 | 1.6 | 6.4 | 0.00 | 0.00 | 0.00 | 40 | 1009.0 |
| 20260504175037 | 25 | 60 | 1.6 | 6.4 | 0.00 | 0.00 | 0.00 | 39 | 1009.0 |
| 20260504174552 | 25 | 60 | 1.6 | 6.4 | 0.00 | 0.00 | 0.00 | 39 | 1009.0 |
| 20260504174038 | 25 | 74 | 0.0 | 6.4 | 0.00 | 0.00 | 0.00 | 38 | 1008.9 |
| 20260504173538 | 25 | 59 | 1.6 | 6.4 | 0.00 | 0.00 | 0.00 | 39 | 1008.9 |
| 20260504173053 | 25 | 63 | 1.6 | 6.4 | 0.00 | 0.00 | 0.00 | 39 | 1008.9 |
| 20260504172537 | 25 | 66 | 3.2 | 6.4 | 0.00 | 0.00 | 0.00 | 39 | 1009.0 |
| 20260504172038 | 25 | 71 | 1.6 | 6.4 | 0.00 | 0.00 | 0.00 | 39 | 1009.0 |
| 20260504171554 | 25 | 101 | 3.2 | 14.5 | 0.00 | 0.00 | 0.00 | 38 | 1009.0 |
| 20260504171037 | 25 | 51 | 1.6 | 14.5 | 0.00 | 0.00 | 0.00 | 38 | 1009.0 |
| 20260504170538 | 25 | 71 | 1.6 | 6.4 | 0.00 | 0.00 | 0.00 | 36 | 1009.0 |
| 20260504151036 | 27 | 325 | 1.6 | 11.3 | 0.00 | 0.00 | 0.00 | 31 | 1009.5 |
| 20260504150537 | 28 | 90 | 1.6 | 11.3 | 0.00 | 0.00 | 0.00 | 30 | 1009.5 |
| 20260504141036 | 29 | 188 | 1.6 | 6.4 | 0.00 | 0.00 | 0.00 | 29 | 1010.4 |
| 20260504140537 | 29 | 0 | 1.6 | 6.4 | 0.00 | 0.00 | 0.00 | 29 | 1010.5 |